This demonstration page uses our WeatherBlox Daily Observations layout. Learn more.

Left ArrowRight Arrow

Hourly Observations for May 18, 2022

Temp ( °F °C ) Dew Point ( °F °C ) Humidity (%) Winds ( mph kmh ) Pressure ( in mb ) Visibility ( mi km ) Precip ( " mm )
12:51 am 00:51 Clear 75 23.9 19 -7.2 12 12 NNW 12 19 29.79 1009 10 16 0.00 0.00
1:51 am 01:51 Clear 75 23.9 28 -2.2 18 18 NNW 15 24 29.79 1009 10 16 0.00 0.00
2:51 am 02:51 Clear 73 22.8 27 -2.8 18 18 NW 8 13 29.81 1010 10 16 0.00 0.00
3:51 am 03:51 Clear 70 21.1 31 -0.6 23 23 NNW 8 13 29.83 1010 10 16 0.00 0.00
4:51 am 04:51 Clear 63 17.2 23 -5 22 22 SSE 7 11 29.87 1011 10 16 0.00 0.00
5:51 am 05:51 Sunny 62 16.7 23 -5 22 22 E 8 13 29.90 1012 10 16 0.00 0.00
6:51 am 06:51 Sunny 72 22.2 28 -2.2 19 19 SE 7 11 29.90 1013 10 16 0.00 0.00
7:51 am 07:51 Sunny 76 24.4 31 -0.6 19 19 SSE 5 7 29.91 1013 10 16 0.00 0.00
8:51 am 08:51 Sunny 80 26.7 35 1.7 20 20 VRB 3 6 29.91 1013 10 16 0.00 0.00
9:51 am 09:51 Sunny 84 28.9 35 1.7 17 17 SSW 7 11 29.89 1012 10 16 0.00 0.00
10:51 am 10:51 Sunny 87 30.6 36 2.2 16 16 S 5 7 29.88 1012 10 16 0.00 0.00
11:51 am 11:51 Sunny 90 32.2 33 0.6 13 13 SE 8 13 29.85 1011 10 16 0.00 0.00
12:51 pm 12:51 Sunny 89 31.7 34 1.1 14 14 VRB 5 7 29.83 1010 10 16 0.00 0.00
1:51 pm 13:51 Sunny 93 33.9 32 0 11 11 S 8 13 29.79 1009 10 16 0.00 0.00
2:51 pm 14:51 Sunny 93 33.9 32 0 11 11 VRB 5 7 29.76 1008 10 16 0.00 0.00
3:51 pm 15:51 Sunny 93 33.9 31 -0.6 11 11 undefined N/A 29.74 1007 10 16 0.00 0.00
4:51 pm 16:51 Sunny 93 33.9 30 -1.1 10 10 SSW 8 13 29.73 1007 10 16 0.00 0.00
5:51 pm 17:51 Sunny 93 33.9 29 -1.7 10 10 WNW 15 24 29.72 1006 10 16 0.00 0.00
6:51 pm 18:51 Sunny 90 32.2 25 -3.9 9 9 NW 18 30 29.72 1006 10 16 0.00 0.00
7:51 pm 19:51 Clear 85 29.4 23 -5 10 10 NW 14 22 29.74 1007 10 16 0.00 0.00
8:51 pm 20:51 Clear 81 27.2 21 -6.1 11 11 NW 10 17 29.76 1008 10 16 0.00 0.00
9:51 pm 21:51 Clear 76 24.4 20 -6.7 12 12 WNW 10 17 29.79 1009 10 16 0.00 0.00
10:51 pm 22:51 Clear 73 22.8 20 -6.7 13 13 WNW 10 17 29.78 1009 10 16 0.00 0.00
11:51 pm 23:51 Clear 74 23.3 20 -6.7 13 13 NW 13 20 29.77 1008 10 16 0.00 0.00

Powered by AerisWeather